sat.trackr.live / text

‹ back to catalog

STARLINK-2521

NORAD 48648 · 2021-044L

PAYLOAD ACTIVE UNKNOWN

§ Identity

Operator
Country
US
Launch date
2021-05-26
Launch site
AFETR
Launch vehicle
Mass (kg)
RCS (m²)

Purposes: comms

External: N2YO · Heavens-Above · Gunter

§ Orbital elements

Epoch: 2026-09-19T19:17:49.967520Z

Period
94.01 min
Inclination
53.1588°
Eccentricity
0.0001314
Mean motion
15.31693715 rev/d
Perigee alt
469.9 km
Apogee alt
471.7 km
Semi-major
6,848.9 km
B*
-1.4091e-5
RAAN
290.6236°
Arg perigee
85.1511°
Mean anomaly
274.9640°
Rev number
29,357

§ Raw data

STARLINK-25211 48648U 21044L   26262.80405055 -.00000802  00000+0 -14091-4 0  99962 48648  53.1588 290.6236 0001314  85.1511 274.9640 15.31693715293579

JSON: /api/v1/satellites/48648 · /tle

For live sub-satellite position, see the globe view (requires WebGL).

§ Visibility from observer

Set your observer location to see the next 7 days of passes ≥ 10°. The values pass through the URL so the page stays shareable.

No JS? Fill the form by hand. The geolocation button needs JavaScript.